GW6135 Weather Reports


time (UTC)temp
C
wind
direction
speed
KPH
gust
KPH
rain 1hr
cm
rain 24hr
cm
rain mn
cm
humidity
%
barometer
mb
20260510070008 13 263 0.0 0.0 0.00 0.08 0.08 74 1026.9
20260510064504 14 263 0.0 0.0 0.00 0.08 0.08 73 1026.9
20260510063026 14 263 0.0 0.0 0.00 0.08 0.08 72 1026.8
20260510061520 15 263 0.0 0.0 0.00 0.08 0.08 71 1026.8
20260510060034 15 263 0.0 0.0 0.00 0.08 0.08 71 1026.8
20260510054523 15 263 0.0 0.0 0.00 0.08 0.08 71 1026.7
20260510053011 15 263 0.0 0.0 0.00 0.08 0.08 68 1026.6
20260510051506 15 263 0.0 0.0 0.00 0.08 0.08 68 1026.6
20260510050026 15 263 0.0 0.0 0.00 0.08 0.08 68 1026.6
20260510044530 15 263 0.0 0.0 0.00 0.08 0.08 68 1026.7
20260510043026 15 263 0.0 0.0 0.00 0.08 0.08 66 1026.7
20260510041521 15 263 0.0 0.0 0.00 0.08 0.08 68 1026.6
20260510040015 16 263 0.0 0.0 0.00 0.08 0.08 69 1026.8
20260510034520 15 263 0.0 0.0 0.00 0.08 0.08 70 1026.8
20260510033014 15 263 0.0 0.0 0.00 0.08 0.08 71 1026.8
20260510031530 15 263 0.0 0.0 0.00 0.08 0.08 74 1026.9
20260510030027 15 263 0.0 0.0 0.00 0.08 0.08 75 1027.0
20260510024523 15 263 0.0 0.0 0.00 0.08 0.08 75 1027.1
20260510023022 15 263 0.0 0.0 0.00 0.08 0.08 75 1027.4
20260510021520 15 263 0.0 0.0 0.00 0.08 0.08 76 1027.5
20260510020018 15 281 0.0 0.0 0.00 0.08 0.08 79 1027.7
20260510014529 15 281 0.0 0.0 0.00 0.08 0.08 84 1027.9
20260510013028 15 281 0.0 0.0 0.00 0.08 0.08 85 1028.0
20260510011527 14 281 0.0 0.0 0.00 0.08 0.08 87 1028.1
20260510010026 14 281 0.0 0.0 0.00 0.08 0.08 89 1028.2
20260510004522 13 281 0.0 0.0 0.00 0.08 0.08 91 1028.2
20260510003033 13 281 0.0 0.0 0.00 0.08 0.08 92 1028.1
20260510001521 13 281 0.0 0.0 0.00 0.08 0.08 93 1028.2
20260510000030 13 281 0.0 0.0 0.00 0.08 0.08 93 1028.2
20260509234537 13 281 0.0 0.0 0.00 0.08 0.08 94 1028.2
20260509233030 13 281 0.0 0.0 0.00 0.08 0.08 94 1028.1
20260509231526 13 281 0.0 0.0 0.00 0.08 0.08 94 1028.1
20260509230022 13 281 0.0 0.0 0.00 0.08 0.08 94 1027.9
20260509224519 12 281 0.0 0.0 0.00 0.08 0.08 94 1027.9
20260509223018 12 281 0.0 0.0 0.00 0.08 0.08 94 1028.0
20260509221513 12 281 0.0 0.0 0.00 0.08 0.08 94 1027.9
20260509220023 12 281 0.0 0.0 0.00 0.08 0.08 94 1027.6
20260509214507 12 281 0.0 0.0 0.00 0.08 0.08 94 1027.3
20260509213004 12 281 0.0 0.0 0.00 0.08 0.08 94 1027.0
20260509211526 12 281 0.0 0.0 0.00 0.08 0.08 93 1026.9
20260509210022 12 281 0.0 0.0 0.00 0.08 0.08 94 1026.8
20260509204522 12 281 0.0 0.0 0.00 0.08 0.08 93 1026.6